Date String (YYYY-MM-DD hh:mm:ss) UTC,Instrument flags,absolute air pressure of the measurement (hPa),sample flow rate (lpm),inlet stack bypass flow (lpm),air temperature of the measurement (°C),ambient temperature measured by the external sensor (°C),aerosol sample conditioner tube jacket temperature (°C),OPC LED temperature (°C),internal box temperature (°C),relative humidity of the measurement (%),span deviation,mass concentration of particles derived from Lorenz-Mie calculation of OPC scattering (μg/m³),mass concentration of particles derived from Lorenz-Mie calculation of OPC scattering (μg/m³),mass concentration of particles derived from Lorenz-Mie calculation of OPC scattering (μg/m³)
DateTimeUTC,F1_M11,P_M11,Q1_M11,Q2_M11,T1_M11,T2_M11,T3_M11,T4_M11,T5_M11,U1_M11,ZSPAN_M11,X0_M11,X2_M11,X1_M11
2023-10-02 02:00:00,SystemResetWarning,0825.8,5.01,000.00,027.9,025.3,000.0,036.5,029.6,14.4,0000.0,0011.74,0004.55,0003.44
2023-10-02 02:01:00,SystemResetWarning,0825.8,5.01,000.00,027.9,025.7,000.0,036.5,029.6,14.4,0000.0,0011.90,0004.58,0003.44
2023-10-02 02:02:00,SystemResetWarning,0825.8,5.00,000.00,028.0,026.0,000.0,036.5,029.7,14.4,0000.0,0012.59,0004.60,0003.45
2023-10-02 02:03:00,SystemResetWarning,0825.8,5.00,000.00,028.0,026.3,000.0,036.5,029.8,14.3,0000.0,0012.21,0004.56,0003.45
2023-10-02 02:04:00,SystemResetWarning,0825.8,5.00,000.00,028.0,026.5,000.0,036.5,029.8,14.1,0000.0,0011.57,0004.52,0003.44
2023-10-02 02:05:00,SystemResetWarning,0825.9,5.00,000.00,028.1,026.7,000.0,036.5,029.9,14.0,0000.0,0011.41,0004.51,0003.43
2023-10-02 02:06:00,SystemResetWarning,0825.9,5.00,000.00,028.1,026.9,000.0,036.5,029.9,13.9,0000.0,0011.80,0004.51,0003.43
2023-10-02 02:07:00,SystemResetWarning,0825.9,5.00,000.00,028.1,027.0,000.0,036.6,030.0,13.7,0000.0,0012.95,0004.49,0003.43
2023-10-02 02:08:00,SystemResetWarning,0826.0,5.00,000.00,028.2,027.1,000.0,036.6,030.1,13.5,0000.0,0013.21,0004.50,0003.44
2023-10-02 02:09:00,SystemResetWarning,0825.9,5.00,000.00,028.2,027.3,000.0,036.6,030.1,13.5,0000.0,0013.22,0004.52,0003.44
2023-10-02 02:10:00,SystemResetWarning,0825.9,5.00,000.00,028.3,027.3,000.0,036.6,030.2,13.4,0000.0,0013.58,0004.52,0003.44
2023-10-02 02:11:00,SystemResetWarning,0825.9,4.99,000.00,028.3,026.7,000.0,036.6,030.1,13.4,0000.0,0013.71,0004.50,0003.44
2023-10-02 02:12:00,SystemResetWarning,0825.9,5.00,000.00,028.3,025.1,000.0,036.6,030.0,13.5,0000.0,0014.04,0004.48,0003.45
2023-10-02 02:13:00,SystemResetWarning,0825.9,5.00,000.00,028.2,024.7,000.0,036.5,029.9,13.6,0000.0,0013.32,0004.49,0003.45
2023-10-02 02:14:00,SystemResetWarning,0826.0,5.01,000.00,028.1,024.9,000.0,036.5,029.7,13.4,0000.0,0013.77,0004.53,0003.45
2023-10-02 02:15:00,SystemResetWarning,0825.9,5.00,000.00,028.1,025.2,000.0,036.6,029.7,13.5,0000.0,0013.69,0004.54,0003.46
2023-10-02 02:16:00,SystemResetWarning,0825.9,5.00,000.00,028.1,025.6,000.0,036.6,029.7,13.6,0000.0,0013.64,0004.57,0003.48
2023-10-02 02:17:00,SystemResetWarning,0825.9,5.00,000.00,028.1,025.9,000.0,036.6,029.8,13.8,0000.0,0013.38,0004.63,0003.49
2023-10-02 02:18:00,SystemResetWarning,0825.9,5.01,000.00,028.1,026.2,000.0,036.6,029.9,13.7,0000.0,0013.18,0004.68,0003.50
2023-10-02 02:19:00,SystemResetWarning,0825.9,5.00,000.00,028.1,026.5,000.0,036.6,029.9,13.7,0000.0,0012.81,0004.67,0003.50
2023-10-02 02:20:00,SystemResetWarning,0825.9,5.00,000.00,028.1,026.7,000.0,036.6,030.0,13.7,0000.0,0012.47,0004.68,0003.52
2023-10-02 02:21:00,SystemResetWarning,0825.9,5.00,000.00,028.2,026.8,000.0,036.6,030.0,13.6,0000.0,0012.12,0004.67,0003.52
2023-10-02 02:22:00,SystemResetWarning,0825.9,5.00,000.00,028.2,027.0,000.0,036.6,030.1,13.5,0000.0,0012.39,0004.75,0003.52
2023-10-02 02:23:00,SystemResetWarning,0825.9,5.00,000.00,028.2,027.1,000.0,036.6,030.1,13.5,0000.0,0012.69,0004.80,0003.53
2023-10-02 02:24:00,SystemResetWarning,0825.9,5.01,000.00,028.3,027.2,000.0,036.6,030.1,13.4,0000.0,0013.14,0004.79,0003.53
2023-10-02 02:25:00,SystemResetWarning,0826.0,4.99,000.00,028.3,026.2,000.0,036.6,030.1,13.3,0000.0,0012.86,0004.79,0003.53
2023-10-02 02:26:00,SystemResetWarning,0825.9,5.01,000.00,028.2,024.7,000.0,036.6,029.9,13.3,0000.0,0013.48,0004.78,0003.53
2023-10-02 02:27:00,SystemResetWarning,0825.9,5.01,000.00,028.2,024.5,000.0,036.5,029.8,13.4,0000.0,0013.36,0004.74,0003.52
2023-10-02 02:28:00,SystemResetWarning,0826.0,5.00,000.00,028.1,024.8,000.0,036.5,029.7,13.2,0000.0,0013.80,0004.72,0003.52
2023-10-02 02:29:00,SystemResetWarning,0826.0,5.00,000.00,028.0,025.1,000.0,036.6,029.7,13.3,0000.0,0013.68,0004.68,0003.51
2023-10-02 02:30:00,SystemResetWarning,0826.0,5.01,000.00,028.0,025.5,000.0,036.5,029.7,13.3,0000.0,0013.92,0004.64,0003.50
2023-10-02 02:31:00,SystemResetWarning,0826.0,5.00,000.00,028.0,025.8,000.0,036.5,029.7,13.3,0000.0,0013.78,0004.58,0003.48
2023-10-02 02:32:00,SystemResetWarning,0826.1,4.99,000.00,028.0,026.1,000.0,036.5,029.8,13.2,0000.0,0014.52,0004.53,0003.46
2023-10-02 02:33:00,SystemResetWarning,0826.1,5.00,000.00,028.1,026.3,000.0,036.5,029.8,13.3,0000.0,0014.48,0004.51,0003.46
2023-10-02 02:34:00,SystemResetWarning,0826.1,5.00,000.00,028.1,026.5,000.0,036.5,029.9,13.2,0000.0,0014.55,0004.44,0003.45
2023-10-02 02:35:00,SystemResetWarning,0826.1,5.01,000.00,028.1,026.7,000.0,036.5,029.9,13.1,0000.0,0013.91,0004.43,0003.44
2023-10-02 02:36:00,SystemResetWarning,0826.2,5.01,000.00,028.1,026.8,000.0,036.6,030.0,13.1,0000.0,0013.96,0004.43,0003.43
2023-10-02 02:37:00,SystemResetWarning,0826.2,4.99,000.00,028.2,027.0,000.0,036.6,030.0,13.0,0000.0,0014.19,0004.42,0003.42
2023-10-02 02:38:00,SystemResetWarning,0826.2,4.99,000.00,028.2,027.1,000.0,036.6,030.0,13.1,0000.0,0014.13,0004.42,0003.42
2023-10-02 02:39:00,SystemResetWarning,0826.2,5.01,000.00,028.2,027.1,000.0,036.6,030.1,13.0,0000.0,0013.54,0004.36,0003.41
2023-10-02 02:40:00,SystemResetWarning,0826.2,4.99,000.00,028.3,026.1,000.0,036.6,030.0,13.0,0000.0,0012.94,0004.31,0003.40
2023-10-02 02:41:00,SystemResetWarning,0826.2,5.01,000.00,028.2,024.7,000.0,036.5,029.8,13.2,0000.0,0011.96,0004.31,0003.38
2023-10-02 02:42:00,SystemResetWarning,0826.2,5.00,000.00,028.1,024.5,000.0,036.5,029.7,13.1,0000.0,0011.82,0004.29,0003.39
2023-10-02 02:43:00,SystemResetWarning,0826.2,5.01,000.00,028.0,024.7,000.0,036.5,029.5,13.2,0000.0,0011.37,0004.31,0003.38
2023-10-02 02:44:00,SystemResetWarning,0826.2,5.00,000.00,028.0,025.0,000.0,036.5,029.6,13.2,0000.0,0010.82,0004.23,0003.35
2023-10-02 02:45:00,SystemResetWarning,0826.3,5.00,000.00,028.0,025.4,000.0,036.5,029.6,13.2,0000.0,0010.14,0004.15,0003.32
2023-10-02 02:46:00,SystemResetWarning,0826.2,5.00,000.00,028.0,025.7,000.0,036.5,029.7,13.1,0000.0,0009.69,0004.08,0003.29
2023-10-02 02:47:00,SystemResetWarning,0826.3,4.99,000.00,028.0,026.0,000.0,036.5,029.7,13.1,0000.0,0009.50,0003.99,0003.27
2023-10-02 02:48:00,SystemResetWarning,0826.3,5.00,000.00,028.0,026.3,000.0,036.5,029.8,13.1,0000.0,0008.65,0003.87,0003.24
2023-10-02 02:49:00,SystemResetWarning,0826.4,5.00,000.00,028.0,026.5,000.0,036.5,029.8,13.1,0000.0,0007.92,0003.81,0003.21
2023-10-02 02:50:00,SystemResetWarning,0826.4,5.00,000.00,028.0,026.6,000.0,036.5,029.8,13.0,0000.0,0007.82,0003.78,0003.20
2023-10-02 02:51:00,SystemResetWarning,0826.4,5.00,000.00,028.1,026.8,000.0,036.5,029.9,12.9,0000.0,0007.59,0003.75,0003.17
2023-10-02 02:52:00,SystemResetWarning,0826.4,5.00,000.00,028.1,026.9,000.0,036.5,029.9,12.8,0000.0,0007.52,0003.71,0003.15
2023-10-02 02:53:00,SystemResetWarning,0826.4,5.01,000.00,028.1,027.0,000.0,036.5,030.0,12.8,0000.0,0007.45,0003.66,0003.13
2023-10-02 02:54:00,SystemResetWarning,0826.5,5.00,000.00,028.2,027.1,000.0,036.6,030.0,12.7,0000.0,0006.43,0003.60,0003.11
2023-10-02 02:55:00,SystemResetWarning,0826.5,4.99,000.00,028.2,027.2,000.0,036.6,030.1,12.7,0000.0,0006.87,0003.65,0003.11
2023-10-02 02:56:00,SystemResetWarning,0826.5,4.99,000.00,028.3,027.2,000.0,036.6,030.1,12.7,0000.0,0007.23,0003.67,0003.12
2023-10-02 02:57:00,SystemResetWarning,0826.5,5.00,000.00,028.3,026.3,000.0,036.6,030.1,12.6,0000.0,0007.71,0003.69,0003.13
2023-10-02 02:58:00,SystemResetWarning,0826.5,5.00,000.00,028.2,024.8,000.0,036.5,029.9,12.6,0000.0,0007.95,0003.74,0003.13
2023-10-02 02:59:00,SystemResetWarning,0826.5,5.00,000.00,028.2,024.5,000.0,036.5,029.8,12.5,0000.0,0007.99,0003.74,0003.13
